Location: Little Elm
(33.1626°N, 96.9375°W)
Time: 04:38:49
(UTC+00:00)

H-2A R/B (2) - Pass Details

Date: 09 July 2022
Orbit: 425 x 34397 km, 28.9° (Epoch: 14 August)

Event Time Altitude Azimuth Distance (km) Brightness Sun altitude
Exits shadow 05:01:54 - 143° (SE) 21,402 8.8 -30.4°
Reaches altitude 10° 06:28:34 10° 135° (SE) 32,625 9.8 -34.5°
Maximum altitude 12:41:50 53° 142° (SE) 16,509 9.1 13.7°
Drops below altitude 10° 13:31:16 10° 84° (E) 7,716 9.1 23.7°
Sets 13:34:42 0° 79° (E) 7,684 8.5 24.4°
